This is the latest recevied weather packets stored in our database for station/object N9BSW. If no packets are shown the sender has not sent any weather packets the latest 10 day(s).
| Time | Temp. | Humidity | Pressure | Rain* | Wind** | Luminosity | Snow |
|---|---|---|---|---|---|---|---|
| 1777925564 | 21.67° C | 56% | 1005.8 hPa | 0 mm | - | 512 W/m² | - |
| 1777925262 | 21.11° C | 60% | 1006.1 hPa | 0 mm | - | 406 W/m² | - |
| 1777924958 | 20.56° C | 61% | 1006.5 hPa | 0 mm | - | 348 W/m² | - |
| 1777924654 | 20.56° C | 64% | 1006.4 hPa | 0 mm | - | 236 W/m² | - |
| 1777924350 | 20° C | 65% | 1006.9 hPa | 0 mm | - | 224 W/m² | - |
| 1777924048 | 19.44° C | 67% | 1007.1 hPa | 0 mm | - | 220 W/m² | - |
| 1777923743 | 19.44° C | 69% | 1007.1 hPa | 0 mm | - | 152 W/m² | - |
| 1777923440 | 19.44° C | 72% | 1007 hPa | 0 mm | - | 164 W/m² | - |
| 1777923138 | 19.44° C | 72% | 1006.8 hPa | 0 mm | - | 261 W/m² | - |
| 1777922836 | 18.89° C | 73% | 1006.7 hPa | 0 mm | - | 291 W/m² | - |
| 1777922534 | 18.33° C | 74% | 1006.7 hPa | 0 mm | - | 252 W/m² | - |
| 1777922232 | 18.33° C | 76% | 1006.6 hPa | 0 mm | - | 278 W/m² | - |
| 1777921929 | 17.78° C | 76% | 1006.7 hPa | 0 mm | - | 357 W/m² | - |
| 1777921624 | 17.22° C | 74% | 1006.8 hPa | 0 mm | - | 267 W/m² | - |
| 1777921320 | 17.22° C | 75% | 1006.6 hPa | 0 mm | - | 277 W/m² | - |
| 1777921017 | 16.67° C | 73% | 1006.5 hPa | 0 mm | - | 197 W/m² | - |
| 1777920713 | 16.11° C | 75% | 1006.4 hPa | 0 mm | - | 108 W/m² | - |
| 1777920410 | 16.67° C | 75% | 1006.6 hPa | 0 mm | - | 48 W/m² | - |
| 1777920105 | 16.67° C | 74% | 1007.1 hPa | 0 mm | - | 33 W/m² | - |
| 1777919802 | 17.22° C | 72% | 1007.6 hPa | 0 mm | - | 29 W/m² | - |
| 1777919499 | 17.78° C | 71% | 1008.3 hPa | 0 mm | - | 28 W/m² | - |
| 1777919197 | 18.33° C | 68% | 1008.1 hPa | 0 mm | - | 37 W/m² | - |
| 1777918894 | 18.89° C | 63% | 1007.6 hPa | 0 mm | - | 51 W/m² | - |
| 1777918592 | 19.44° C | 62% | 1007.5 hPa | 0 mm | - | 73 W/m² | - |
| 1777918289 | 19.44° C | 60% | 1007.3 hPa | 0 mm | - | 87 W/m² | - |
* Rain latest hour (hover to see other rain measurements)
** Current wind speed in m/s (hover to see current wind gust speed)